Location: Pfullendorf
(47.9261°N, 9.2578°E)
Time: 05:36:07
(UTC+00:00)

Daily predictions for brighter satellites

Satellite Brightness Start Highest point End
(mag) Time Altitude Azimuth Time Altitude Azimuth Time Altitude Azimuth
ATLAS 2AS CENTAUR R/B 3.2 00:09:45 41° W 00:11:51 54° NW 00:18:32 10° NE
IDEFIX/ARIANE 42P 4.0 00:12:05 10° NE 00:16:25 26° E 00:16:41 26° E
Meteor 1-5 Rocket 4.2 00:16:09 10° NNW 00:20:58 68° NW 00:20:58 68° NW
Cosmos 1953 Rocket 4.4 00:18:49 10° N 00:22:18 48° NNE 00:22:18 48° NNE
Cosmos 1980 Rocket 2.8 00:19:57 10° NW 00:24:20 46° WNW 00:24:20 46° WNW
USA 234 4.3 00:20:31 10° E 00:26:38 44° NNE 00:32:46 10° WNW
Cosmos 44 Rocket 4.1 00:29:47 46° E 00:29:47 46° E 00:33:57 10° NE
COSMOS 2406 3.9 00:32:29 42° ESE 00:32:39 42° ESE 00:38:02 10° NE
Meteor 2-10 4.3 00:31:02 10° NNW 00:36:03 63° WNW 00:36:03 63° WNW
Cosmos 1634 Rocket 4.0 00:35:56 61° SE 00:36:44 68° E 00:42:52 10° NNE
Cosmos 2369 3.6 00:31:07 10° NNW 00:36:37 79° WNW 00:36:37 79° WNW
Cosmos 724 4.2 00:44:49 73° SSE 00:45:11 75° ESE 00:51:09 10° NE
Cosmos 2084 4.4 00:46:23 42° N 00:46:23 42° N 00:49:39 10° NNE
Cosmos 1607 3.9 00:47:22 62° SSE 00:47:52 65° ESE 00:54:03 10° NE
Cosmos 1627 Rocket 4.4 00:41:41 10° NNW 00:47:56 71° W 00:48:29 67° SW
Cosmos-2242 3.5 00:52:12 55° NNE 00:52:12 55° NNE 00:55:33 10° NNE
Cosmos 2360 Rocket 3.6 00:47:14 10° NNW 00:52:27 36° NE 00:57:38 10° ESE
Cosmos 2333 Rocket 2.8 00:48:05 10° NNW 00:53:40 55° ENE 00:57:05 23° SE
USA 281 3.3 00:51:27 31° SE 00:54:49 75° ENE 01:01:24 10° NNW
FENGYUN 3A 4.4 00:50:29 10° NNE 00:55:39 42° E 00:56:43 38° SE
Cosmos 2082 Rocket 2.2 00:59:24 62° W 01:00:00 66° WNW 01:05:43 10° NNE
Meteor 2-2 Rocket 4.1 01:02:52 71° S 01:03:32 85° E 01:09:11 10° NNE
Cosmos 2279 Rocket 4.0 01:03:59 55° SSE 01:05:25 77° E 01:11:41 10° NNE
Cosmos 2278 4.1 01:01:47 10° NNW 01:07:29 63° ENE 01:11:11 22° SE
Cosmos 2221 3.6 01:07:40 34° E 01:07:53 35° E 01:11:40 10° NNE
Cosmos 2322 Rocket 3.1 01:02:27 10° NNW 01:07:54 47° NE 01:13:20 10° SE
Cosmos 1486 Rocket 4.1 01:03:04 10° NNW 01:08:18 73° ENE 01:09:36 50° SE
NPP 4.0 01:03:33 10° NNE 01:08:52 56° ESE 01:09:57 47° SE
Resurs 1-4 Rocket 4.0 01:05:21 10° NE 01:09:27 22° E 01:12:17 15° SE
NOSS 3-3 (A) 3.6 01:14:12 61° SSE 01:14:49 67° SE 01:20:53 10° NE
ACS3 Solar Sail 1.9 01:11:29 10° N 01:17:23 57° WNW 01:18:33 49° WSW
Cosmos 1777 Rocket 4.0 01:13:39 10° NNW 01:18:56 78° ENE 01:20:41 43° SE
Cosmos 2219 Rocket 3.6 01:16:34 10° NNW 01:21:48 37° NE 01:27:00 10° ESE
CZ-4C R/B 2.3 01:22:06 45° WNW 01:22:46 49° NW 01:28:10 10° NE
SL-16 R/B 2.1 01:17:21 10° NNW 01:23:04 84° WSW 01:24:53 45° SSE
H-2A R/B 4.1 01:20:17 10° NE 01:24:05 20° E 01:27:57 10° SE
GP-B 4.1 01:20:05 10° NNW 01:23:25 35° WNW 01:23:25 35° WNW
Cosmos 2180 Rocket 4.5 01:22:11 45° S 01:24:12 75° E 01:30:23 10° NNE
Cosmos 1271 Rocket 3.5 01:27:38 41° E 01:27:38 41° E 01:30:37 10° NNE
Meteor 1-14 Rocket 4.2 01:24:31 10° N 01:30:18 81° ENE 01:32:37 37° SSE
SL-4 R/B 2.6 01:31:34 44° ESE 01:31:34 44° ESE 01:34:15 10° ESE
ATLAS 3B R/B 4.0 01:24:26 10° NW 01:29:24 26° W 01:29:24 26° W
NOSS 3-3 (C) 3.6 01:30:27 56° S 01:31:34 73° SE 01:37:45 10° NE
Cosmos 2058 Rocket 3.6 01:32:04 45° WNW 01:32:04 45° WNW 01:36:06 10° N
USA 267 3.6 01:25:33 10° ENE 01:31:55 50° SE 01:34:01 38° S
Cosmos 2266 Rocket 3.9 01:29:44 10° N 01:35:54 80° E 01:39:09 29° SSE
Gbstr 26 Del rocket 2.7 01:37:23 72° ENE 01:37:23 72° ENE 01:40:51 10° ESE
Cosmos 1470 3.3 01:33:53 10° N 01:36:15 43° N 01:36:15 43° N
USA 290 4.2 01:37:48 23° E 01:37:48 23° E 01:40:14 10° NE
Cosmos 1536 4.4 01:45:08 10° NNW 01:46:48 21° NW 01:46:48 21° NW
Cosmos 2333 4.4 01:42:50 10° NNW 01:48:31 71° ENE 01:54:12 10° SE
DMSP B5D2-2 4.2 01:45:23 20° SSE 01:49:00 71° ENE 01:54:11 10° N
Cosmos 1812 Rocket 3.5 01:49:34 54° S 01:50:28 78° E 01:54:50 10° NNE
Meteor 2-6 Rocket 4.3 01:49:06 44° SW 01:50:48 64° WNW 01:56:40 10° N
NOSS 3-4 (A) 4.2 01:46:37 10° NW 01:53:11 65° NE 02:00:57 10° SE
NOSS 3-4 (C) 4.2 01:47:09 10° NW 01:53:45 64° NE 02:01:31 10° SE
ISS -1.2 01:56:14 13° SE 01:56:14 13° SE 01:57:33 10° ESE
IDEFIX/ARIANE 42P 3.0 01:51:07 10° N 01:56:05 47° WNW 01:57:21 39° WSW
Meteor 2-20 4.5 01:54:40 30° S 01:57:55 81° E 02:04:06 10° NNE
COSMOS 2441 4.2 01:53:23 10° NNE 01:58:13 87° W 01:59:44 44° SSW
Envisat 3.3 01:53:46 10° NNE 01:58:48 62° ESE 02:01:23 28° S
Aureole 1 Rocket 3.9 01:55:52 10° NNW 01:59:55 53° ENE 02:04:58 10° SE
Cosmos 2084 Rocket 3.4 01:59:17 10° NW 02:03:30 82° NE 02:07:45 10° SE
ATLAS 2AS CENTAUR R/B 4.5 01:58:48 10° WNW 02:04:15 24° NNW 02:09:39 10° NE
Iridium 4 Rocket 3.3 02:03:00 34° S 02:05:04 84° E 02:10:09 10° N
MOZ.5/SAFIR/RUBIN 5/SL-8 3.7 02:05:31 41° SSW 02:06:55 61° WSW 02:11:32 10° NNW
Meteor 1-27 Rocket 4.2 02:03:31 20° S 02:07:40 62° E 02:13:31 10° NNE
H-2A R/B 2.3 02:06:25 29° SSE 02:08:09 70° ENE 02:11:44 10° N
USA 234 3.4 02:02:42 10° ESE 02:09:14 79° NNE 02:15:47 10° NW
Cosmos 1975 3.1 02:07:28 10° NNW 02:10:36 41° WNW 02:10:36 41° WNW
Cosmos 990 Rocket 3.8 02:06:29 10° NNW 02:11:37 72° WSW 02:15:53 15° SSE
ADEOS II 2.8 02:07:15 10° NNE 02:12:20 49° E 02:16:28 15° S
Cosmos 1763 Rocket 3.5 02:13:16 36° SW 02:15:28 74° WNW 02:20:47 10° NNE
Cosmos 1238 Rocket 2.8 02:15:06 39° SE 02:15:42 47° E 02:18:36 10° NNE
ALOS 2.4 02:12:21 10° NNE 02:16:55 68° ESE 02:19:31 25° S
COSMOS 2406 4.1 02:14:30 26° W 02:16:59 38° NW 02:22:21 10° NNE
COSMOS 2428 4.3 02:15:31 10° NNW 02:20:48 37° NE 02:26:02 10° ESE
SL-16 R/B 3.9 02:15:04 10° SE 02:20:51 41° ENE 02:26:40 10° N
CZ-2D R/B 2.2 02:15:41 10° NNE 02:20:58 77° ESE 02:24:32 21° S
ADEOS Rocket 3.7 02:16:31 10° N 02:23:54 60° WNW 02:28:49 24° SW
Spot 2 4.3 02:23:06 10° SSE 02:27:53 83° WSW 02:32:53 10° NNW
Cosmos 1898 Rocket 4.1 02:24:35 10° NNW 02:29:42 58° ENE 02:34:46 10° SE
Cosmos 1354 Rocket 4.2 02:29:01 10° NNW 02:34:04 47° WSW 02:38:18 14° S
Cosmos 2360 Rocket 2.5 02:31:10 10° NW 02:36:33 45° WSW 02:41:54 10° S
Cosmos 2333 Rocket 3.1 02:32:56 10° NW 02:37:36 27° WSW 02:39:00 24° SW
SL-19 R/B 4.4 02:32:31 10° NNE 02:38:13 82° ESE 02:43:25 14° SSW
Alouette 2 Rocket 3.1 02:34:19 10° NNW 02:38:24 78° W 02:41:40 12° S
USA 305 4.0 02:38:24 10° NNW 02:38:41 11° NNW 02:39:08 10° N
USA 281 4.2 02:38:17 22° WSW 02:39:53 24° W 02:45:06 10° NW
EP 1 4.3 02:37:48 10° NW 02:40:24 79° NE 02:43:14 10° SE
Meteor 2-10 Rocket 3.9 02:38:56 10° N 02:44:01 65° ENE 02:49:15 10° SSE
Cosmos 540 Rocket 3.8 02:41:18 25° SW 02:44:04 49° WNW 02:49:04 10° NNE
Cosmos 2221 3.8 02:43:58 21° W 02:45:00 23° WNW 02:48:19 10° NNW
Cosmos 2082 Rocket 4.2 02:41:39 10° WNW 02:45:13 17° NW 02:48:48 10° N
H-2A R/B 3.7 02:42:12 10° NE 02:45:44 29° E 02:49:14 10° SSE
Cosmos 1553 Rocket 4.4 02:41:03 10° S 02:47:09 66° E 02:53:23 10° NNE
USA 276 2.9 02:50:08 18° ESE 02:50:08 18° ESE 02:50:45 10° ESE
Resurs 1-4 Rocket 2.3 02:44:22 10° N 02:49:35 58° WNW 02:53:19 19° SW
Cosmos 468 Rocket 4.0 02:46:38 20° SSW 02:50:17 74° WNW 02:55:36 10° NNE
Cosmos 2322 Rocket 2.9 02:46:48 10° NW 02:51:44 32° WSW 02:56:38 10° SSW
BREEZE-M DEB (TANK) 3.2 02:50:12 15° WNW 02:52:39 88° N 03:01:20 10° ESE
DNEPR-1 R/B 4.3 02:49:37 10° NW 02:54:58 60° WSW 03:01:28 10° SSE
CZ-2C R/B 4.4 02:52:56 10° NE 02:57:00 26° E 03:00:56 10° SSE
Cosmos 1766 Rocket 3.7 02:53:21 10° NNW 02:57:34 49° W 03:01:40 10° SSW
Cosmos 1833 4.4 02:53:59 19° SW 02:58:00 60° WNW 03:03:39 10° NNE
ACS3 Solar Sail 3.8 02:56:29 10° NNW 02:58:33 12° NW 03:00:39 10° WNW
CRYOSAT 2 4.3 02:58:44 10° S 03:03:35 66° W 03:08:27 10° N
H-2A R/B 2.2 02:58:42 10° N 03:03:46 61° WNW 03:08:28 13° SSW
Cosmos 2219 Rocket 2.5 03:00:31 10° NW 03:05:47 42° WSW 03:11:04 10° S
Cosmos 2237 Rocket 4.0 03:00:35 10° NNW 03:05:50 35° NE 03:11:00 10° ESE
SL-16 R/B 3.8 03:03:29 10° WNW 03:06:14 14° W 03:06:38 14° WSW
SL-4 R/B 2.8 03:05:08 15° W 03:07:32 26° SW 03:10:43 10° SSE
Meteor 2-11 Rocket 4.5 03:02:18 10° NNW 03:08:24 65° W 03:14:27 10° S
SL-14 R/B 3.8 03:04:48 10° S 03:08:37 60° E 03:12:28 10° NNE
CZ-3 Stage 3 4.4 03:05:05 15° SW 03:11:32 34° SSE 03:33:19 10° ESE
USA 290 3.8 03:10:18 16° W 03:11:44 22° WNW 03:14:18 10° N
CZ-4C R/B 4.1 03:08:42 10° WNW 03:12:28 20° NNW 03:16:58 10° NE
ARGOS 3.3 03:09:22 10° NNE 03:14:48 81° ESE 03:20:10 10° SSW
USA 267 3.5 03:08:35 10° NE 03:15:05 67° NNW 03:21:22 11° WSW
Cosmos 1408 Rocket 4.1 03:11:29 10° N 03:15:45 61° ENE 03:19:57 10° SSE
Cosmos 1745 Rocket 4.4 03:10:20 10° N 03:16:30 68° ENE 03:22:35 10° SSE
METEOR-M 4.2 03:12:05 10° N 03:17:23 68° WNW 03:22:40 10° SSW
Gbstr 26 Del rocket 3.7 03:19:56 10° W 03:23:01 25° SW 03:26:08 10° SSE
Cosmos 2322 3.7 03:20:33 10° NNW 03:26:16 75° WSW 03:31:56 10° SSE
NOSS 3 (A) 4.3 03:29:30 10° NW 03:31:51 78° NE 03:34:53 10° SE
ISS -3.6 03:29:12 12° SW 03:32:13 66° SSE 03:35:36 10° ENE
Envisat 4.5 03:33:32 10° NNW 03:37:18 21° WNW 03:41:03 10° WSW
BREEZE-M DEB (TANK) 2.3 03:31:30 10° WSW 03:37:47 68° SSE 03:40:29 10° ENE
Meteor 2-4 Rocket 4.4 03:34:44 10° SW 03:39:36 34° WNW 03:44:29 10° N
Cosmos 1461 3.0 03:37:03 10° WSW 03:40:41 48° NW 03:44:18 10° NNE
Meteor 1-28 Rocket 3.2 03:40:05 10° SSE 03:43:19 67° ENE 03:46:34 10° N
NOSS 3-4 (A) 4.4 03:37:41 10° NW 03:43:58 37° WSW 03:51:10 10° S
NOSS 3-4 (C) 4.4 03:38:13 10° NW 03:44:32 37° WSW 03:51:44 10° S
AQUA 4.0 03:40:23 10° N 03:44:57 55° WNW 03:49:30 10° SSW
NOSS 0 Rocket 3.9 03:40:25 10° NNW 03:46:37 78° WSW 03:52:46 10° SSE
Cosmos 1151 Rocket 2.9 03:44:15 10° SSW 03:48:27 73° WNW 03:52:41 10° N
PAYLOAD A 4.4 03:44:19 10° NNE 03:49:02 62° ESE 03:53:39 10° S
Cosmos 1500 Rocket 3.6 03:46:47 10° NNW 03:51:08 63° W 03:55:30 10° S
ADEOS II 3.2 03:47:15 10° N 03:51:37 27° WNW 03:55:58 10° WSW
USA 234 3.7 03:46:37 10° SSE 03:52:36 38° SW 03:58:38 10° WNW
CZ-3 R/B 4.0 03:51:21 10° WSW 04:09:09 28° SSW 04:16:23 10° SSE
